When you browse on this site, cookies collect data to enhance your experience and personalize the content and advertising you see.
Visit our Privacy Policy to learn more. By continuing to use the site, you agree to this use of cookies and data.
  • In Hungary
  • List of Countries
  • For 7 days
  • Water Temperature
  • Weather Map
  • News
  • Weather Widgets
  • user-avatar
    Login

    Hourly Weather Chernechchyna

    Today, 18 August, Sunday

    Time Temperature Precipitation Wind Pressure Humidity
    00:00 +16°C° 0 mm 3 mps 751 mmHg 89%
    01:00 +15°C° 0 mm 2 mps 751 mmHg 91%
    02:00 +15°C° 0 mm 2 mps 751 mmHg 93%
    03:00 +14°C° 0 mm 2 mps 751 mmHg 93%
    04:00 +14°C° 0 mm 2 mps 751 mmHg 94%
    05:00 +14°C° 0 mm 2 mps 751 mmHg 95%
    06:00 +14°C° 0 mm 3 mps 752 mmHg 89%
    07:00 +17°C° 0 mm 3 mps 752 mmHg 83%
    08:00 +18°C° 0 mm 3 mps 752 mmHg 77%
    09:00 +20°C° 0 mm 3 mps 752 mmHg 71%
    10:00 +21°C° 0 mm 3 mps 752 mmHg 65%
    11:00 +22°C° 0 mm 3 mps 752 mmHg 59%
    12:00 +24°C° 0 mm 3 mps 752 mmHg 56%
    13:00 +25°C° 0 mm 3 mps 752 mmHg 52%
    14:00 +26°C° 0 mm 3 mps 753 mmHg 49%
    15:00 +26°C° 0 mm 3 mps 753 mmHg 49%
    16:00 +25°C° 0 mm 3 mps 753 mmHg 49%
    17:00 +25°C° 0 mm 3 mps 753 mmHg 49%
    18:00 +22°C° 0 mm 3 mps 753 mmHg 58%
    19:00 +20°C° 0 mm 3 mps 754 mmHg 68%
    20:00 +18°C° 0 mm 3 mps 754 mmHg 77%
    21:00 +17°C° 0 mm 2 mps 754 mmHg 80%
    22:00 +18°C° 0 mm 1 mps 754 mmHg 84%
    23:00 +16°C° 0 mm 1 mps 755 mmHg 87%

    Tomorrow, 19 August, Monday

    Time Temperature Precipitation Wind Pressure Humidity
    00:00 +16°C° 0 mm 1 mps 755 mmHg 87%
    01:00 +15°C° 0 mm 1 mps 755 mmHg 88%
    02:00 +15°C° 0 mm 1 mps 755 mmHg 88%
    03:00 +15°C° 0 mm 1 mps 756 mmHg 89%
    04:00 +15°C° 0 mm 1 mps 756 mmHg 90%
    05:00 +15°C° 0 mm 1 mps 756 mmHg 90%
    06:00 +18°C° 0 mm 1 mps 756 mmHg 82%
    07:00 +19°C° 0 mm 2 mps 757 mmHg 73%
    08:00 +21°C° 0 mm 2 mps 757 mmHg 65%
    09:00 +24°C° 0 mm 2 mps 757 mmHg 59%
    10:00 +25°C° 0 mm 3 mps 757 mmHg 52%
    11:00 +27°C° 0 mm 3 mps 757 mmHg 46%
    12:00 +28°C° 0 mm 3 mps 757 mmHg 44%
    13:00 +28°C° 0 mm 3 mps 757 mmHg 43%
    14:00 +29°C° 0 mm 3 mps 757 mmHg 41%
    15:00 +28°C° 0 mm 3 mps 757 mmHg 42%
    16:00 +28°C° 0 mm 3 mps 757 mmHg 42%
    17:00 +28°C° 0 mm 3 mps 756 mmHg 42%
    18:00 +26°C° 0 mm 3 mps 757 mmHg 50%
    19:00 +24°C° 0 mm 3 mps 757 mmHg 57%
    20:00 +21°C° 0 mm 3 mps 757 mmHg 65%
    21:00 +20°C° 0 mm 3 mps 758 mmHg 68%
    22:00 +20°C° 0 mm 3 mps 758 mmHg 70%
    23:00 +19°C° 0 mm 3 mps 758 mmHg 73%

    Day after tomorrow, 20 August, Tuesday

    Time Temperature Precipitation Wind Pressure Humidity
    00:00 +19°C° 0 mm 3 mps 758 mmHg 74%
    01:00 +19°C° 0 mm 3 mps 758 mmHg 75%
    02:00 +18°C° 0 mm 3 mps 758 mmHg 76%
    03:00 +18°C° 0 mm 3 mps 758 mmHg 78%
    04:00 +18°C° 0 mm 3 mps 758 mmHg 81%
    05:00 +18°C° 0 mm 3 mps 758 mmHg 83%
    06:00 +20°C° 0 mm 3 mps 758 mmHg 75%
    07:00 +22°C° 0 mm 3 mps 759 mmHg 66%
    08:00 +26°C° 0 mm 4 mps 759 mmHg 57%
    09:00 +27°C° 0 mm 4 mps 759 mmHg 53%
    10:00 +28°C° 0 mm 3 mps 759 mmHg 49%
    11:00 +29°C° 0 mm 3 mps 759 mmHg 45%
    12:00 +30°C° 0 mm 3 mps 759 mmHg 42%
    13:00 +31°C° 0 mm 3 mps 758 mmHg 40%
    14:00 +33°C° 0 mm 3 mps 758 mmHg 37%
    15:00 +31°C° 0 mm 3 mps 758 mmHg 38%
    16:00 +31°C° 0 mm 3 mps 758 mmHg 39%
    17:00 +31°C° 0 mm 3 mps 758 mmHg 40%
    18:00 +29°C° 0 mm 3 mps 758 mmHg 45%
    19:00 +27°C° 0 mm 3 mps 758 mmHg 51%
    20:00 +25°C° 0 mm 3 mps 758 mmHg 56%
    21:00 +24°C° 0 mm 3 mps 758 mmHg 59%
    22:00 +24°C° 0 mm 3 mps 759 mmHg 62%
    23:00 +22°C° 0 mm 3 mps 759 mmHg 65%

    21 August, Wednesday

    Time Temperature Precipitation Wind Pressure Humidity
    00:00 +21°C° 0 mm 3 mps 759 mmHg 67%
    01:00 +21°C° 0 mm 3 mps 759 mmHg 69%
    02:00 +20°C° 0 mm 3 mps 759 mmHg 70%
    03:00 +20°C° 0 mm 3 mps 759 mmHg 71%
    04:00 +19°C° 0 mm 3 mps 758 mmHg 72%
    05:00 +19°C° 0 mm 3 mps 758 mmHg 73%
    06:00 +21°C° 0 mm 4 mps 758 mmHg 66%
    07:00 +25°C° 0 mm 4 mps 758 mmHg 58%
    08:00 +27°C° 0 mm 5 mps 758 mmHg 51%
    09:00 +29°C° 0 mm 5 mps 758 mmHg 46%
    10:00 +30°C° 0 mm 5 mps 758 mmHg 41%
    11:00 +33°C° 0 mm 5 mps 757 mmHg 36%
    12:00 +34°C° 0 mm 5 mps 757 mmHg 35%
    13:00 +35°C° 0 mm 5 mps 757 mmHg 34%
    14:00 +36°C° 0 mm 5 mps 756 mmHg 32%
    15:00 +35°C° 0 mm 5 mps 756 mmHg 34%
    16:00 +35°C° 0 mm 5 mps 756 mmHg 37%
    17:00 +34°C° 0 mm 5 mps 755 mmHg 39%
    18:00 +32°C° 0 mm 4 mps 755 mmHg 46%
    19:00 +29°C° 0 mm 4 mps 755 mmHg 53%
    20:00 +26°C° 0 mm 3 mps 756 mmHg 60%
    21:00 +26°C° 0 mm 3 mps 756 mmHg 63%
    22:00 +25°C° 0 mm 3 mps 756 mmHg 67%
    23:00 +24°C° 0 mm 3 mps 756 mmHg 70%

    22 August, Thursday

    Time Temperature Precipitation Wind Pressure Humidity
    00:00 +22°C° 0 mm 3 mps 756 mmHg 73%
    01:00 +22°C° 0 mm 3 mps 756 mmHg 75%
    02:00 +22°C° 0 mm 3 mps 756 mmHg 77%
    03:00 +21°C° 0 mm 3 mps 755 mmHg 78%
    04:00 +21°C° 0 mm 3 mps 755 mmHg 79%
    05:00 +21°C° 0 mm 3 mps 755 mmHg 80%
    06:00 +23°C° 0 mm 4 mps 755 mmHg 73%
    07:00 +26°C° 0 mm 4 mps 755 mmHg 65%
    08:00 +28°C° 0 mm 4 mps 755 mmHg 57%
    09:00 +30°C° 0 mm 4 mps 755 mmHg 50%
    10:00 +33°C° 0 mm 4 mps 755 mmHg 43%
    11:00 +35°C° 0 mm 4 mps 755 mmHg 36%
    12:00 +36°C° 0 mm 4 mps 755 mmHg 34%
    13:00 +37°C° 0 mm 4 mps 755 mmHg 31%
    14:00 +37°C° 0 mm 4 mps 754 mmHg 29%
    15:00 +37°C° 0 mm 4 mps 754 mmHg 30%
    16:00 +36°C° 0 mm 4 mps 754 mmHg 32%
    17:00 +36°C° 0 mm 4 mps 754 mmHg 33%
    18:00 +34°C° 0 mm 3 mps 754 mmHg 39%
    19:00 +30°C° 0 mm 3 mps 754 mmHg 46%
    20:00 +28°C° 0 mm 3 mps 755 mmHg 53%
    21:00 +27°C° 0 mm 4 mps 755 mmHg 56%
    22:00 +27°C° 0 mm 4 mps 755 mmHg 60%
    23:00 +26°C° 0 mm 4 mps 755 mmHg 63%

    23 August, Friday

    Time Temperature Precipitation Wind Pressure Humidity
    00:00 +25°C° 0 mm 4 mps 755 mmHg 65%
    01:00 +25°C° 0 mm 4 mps 755 mmHg 67%
    02:00 +23°C° 0 mm 4 mps 755 mmHg 69%
    03:00 +22°C° 0 mm 4 mps 755 mmHg 71%
    04:00 +22°C° 0 mm 4 mps 756 mmHg 73%
    05:00 +22°C° 0 mm 4 mps 756 mmHg 75%
    06:00 +23°C° 0 mm 4 mps 756 mmHg 70%
    07:00 +26°C° 0 mm 4 mps 756 mmHg 65%
    08:00 +27°C° 0 mm 5 mps 756 mmHg 60%
    09:00 +29°C° 0 mm 5 mps 756 mmHg 55%
    10:00 +32°C° 0 mm 5 mps 756 mmHg 51%
    11:00 +33°C° 0 mm 5 mps 756 mmHg 46%
    12:00 +33°C° 0 mm 5 mps 756 mmHg 46%
    13:00 +33°C° 0 mm 6 mps 756 mmHg 47%
    14:00 +34°C° 0 mm 6 mps 756 mmHg 47%
    15:00 +33°C° 0 mm 6 mps 756 mmHg 50%
    16:00 +32°C° 0 mm 6 mps 756 mmHg 52%
    17:00 +30°C° 0 mm 6 mps 756 mmHg 55%
    18:00 +28°C° 0.1 mm 6 mps 756 mmHg 62%
    19:00 +26°C° 0.1 mm 6 mps 756 mmHg 68%
    20:00 +23°C° 0.1 mm 5 mps 757 mmHg 75%
    21:00 +22°C° 0 mm 5 mps 757 mmHg 77%
    22:00 +21°C° 0 mm 5 mps 757 mmHg 80%
    23:00 +20°C° 0 mm 5 mps 758 mmHg 83%
    Show more